Temperature
22 22 21 21 21 22 23 24 25 25 25 25 25 25 24 22 21 19 18 18 18 18 18 18 18 18 18 18 18 17 17 17 17 17 17 18 18 18 18 18 18 17 18 18 18 18 18 18 18
22 21 22 22 22 23 23 24 24 25 25 25 25 25 24 22 21 19 18 18 18 18 18 18 18 18 18 17 17 17 17 17 17 17 17 17 17 17 17 17 17 17 17 17 17 17 18 18 18
22 22 22 23 23 23 24 25 25 25 25 25 25 24 23 22 20 19 19 18 18 18 18 18 18 18 18 17 17 17 17 17 17 17 17 17 17 17 17 17 17 17 17 17 17 17 17 17 17
22 22 24 23 24 25 25 25 26 26 26 25 25 23 22 21 20 19 19 19 18 18 18 18 18 18 18 17 17 17 17 17 17 17 17 17 17 17 17 17 17 17 17 17 17 17 17 17 17
22 23 23 23 24 25 26 26 26 26 26 25 24 23 21 20 20 19 19 19 18 18 18 18 18 18 18 17 17 17 17 17 17 17 17 17 17 17 17 17 17 17 17 17 17 17 17 17 17
23 24 23 23 24 26 26 26 26 26 26 25 24 23 21 20 20 19 19 19 19 18 18 18 18 18 18 17 17 17 17 17 17 17 17 17 17 17 17 17 17 17 17 17 17 17 17 17 17
24 24 24 24 24 25 26 26 26 25 25 25 24 23 21 20 20 19 19 19 19 18 18 18 18 18 18 17 17 17 17 17 17 17 17 17 17 17 17 17 17 17 16 17 17 17 17 17 17
24 24 24 24 24 24 26 26 25 25 25 25 24 23 21 20 20 20 19 19 19 18 18 18 18 18 18 17 17 17 17 17 17 17 17 17 17 17 17 16 16 16 16 16 17 17 17 17 17
25 24 23 24 24 24 26 26 25 25 25 24 24 23 22 21 20 20 20 20 19 19 18 18 18 18 18 17 17 17 17 17 17 17 17 17 16 16 16 16 16 16 16 16 16 16 16 16 16
25 23 24 25 26 25 26 25 25 25 25 24 23 22 22 21 21 21 20 20 19 19 19 18 18 18 18 17 17 17 17 17 17 17 17 17 17 16 16 16 16 16 16 16 16 16 16 16 16
26 25 25 26 26 26 26 25 25 25 24 24 23 22 22 21 21 21 21 20 20 19 19 19 18 18 18 18 17 17 17 17 17 17 17 17 17 17 16 16 16 16 16 16 16 16 16 16 16
26 26 26 26 26 26 26 26 25 25 24 24 23 23 22 22 22 21 21 20 20 19 19 19 19 18 18 18 17 17 17 17 17 17 17 17 17 17 16 16 16 16 16 16 16 16 16 16 16
26 26 26 26 26 26 26 26 25 25 24 24 23 23 22 22 22 22 21 21 20 20 19 19 19 18 18 18 18 18 17 17 17 17 17 17 17 17 17 16 16 16 16 16 16 16 16 16 16
26 26 26 26 26 26 26 25 25 25 24 24 24 23 23 23 22 22 22 21 21 20 19 19 19 18 18 18 18 18 17 17 17 17 17 17 17 17 17 16 16 16 16 16 16 16 16 16 16
26 26 26 26 26 26 25 24 25 25 24 24 24 23 23 23 22 22 22 21 21 20 20 19 19 19 18 18 18 18 18 17 17 17 17 17 17 17 17 16 16 16 16 16 16 15 15 15 15
27 25 24 26 27 26 25 23 25 25 25 25 24 24 23 23 22 22 22 21 21 20 20 19 19 19 18 18 18 18 17 17 17 17 17 17 17 17 16 16 16 16 16 16 16 15 15 15 15
25 25 25 26 27 26 25 24 25 25 25 25 24 24 23 23 23 22 22 21 21 21 20 19 19 19 18 18 18 18 17 17 17 17 17 17 16 16 16 16 16 16 16 16 15 15 15 15 15
25 25 26 26 26 26 25 24 25 25 25 25 24 24 24 23 23 22 22 21 21 20 20 19 19 19 18 18 18 17 17 17 17 17 16 16 16 16 16 16 16 16 15 15 15 15 15 15 15
26 26 26 26 27 26 25 25 25 25 25 24 24 24 24 23 23 22 21 21 21 20 20 20 19 19 18 18 18 17 17 17 17 16 16 16 16 16 16 16 15 15 15 15 15 15 15 15 15
26 26 26 26 27 26 25 25 25 25 25 24 24 24 24 23 23 22 21 21 21 20 20 20 19 19 18 18 17 17 17 16 16 16 16 16 16 16 15 15 15 15 15 15 15 15 14 14 14
26 25 25 26 26 26 25 24 25 25 25 25 24 24 24 23 22 22 21 21 20 20 20 20 19 18 18 18 17 17 17 16 16 16 16 16 16 16 15 15 15 15 15 15 14 14 14 14 14
25 26 26 26 25 24 25 23 24 24 24 24 24 24 24 23 23 22 21 20 20 20 20 19 19 18 18 18 17 17 17 16 16 16 16 16 16 15 15 15 15 15 15 15 14 14 14 14 14
26 26 26 26 25 24 25 24 24 24 23 24 24 24 23 23 23 22 21 20 20 19 19 19 19 18 18 18 17 17 17 16 16 16 16 16 16 15 15 15 15 15 15 14 14 14 14 14 14
26 26 25 25 24 23 25 24 23 24 24 24 24 24 23 23 22 22 21 20 19 19 19 19 19 18 18 17 17 17 17 16 16 16 16 16 16 15 15 15 15 15 14 14 14 14 14 14 14
25 24 23 23 22 23 25 24 23 25 25 25 24 24 23 23 22 21 20 20 19 19 19 18 18 18 18 17 17 17 17 16 16 16 16 16 15 15 15 15 15 14 14 14 14 14 14 14 13
25 24 22 22 23 24 25 24 24 25 25 25 24 24 23 22 21 21 20 19 19 19 18 18 18 17 17 17 17 17 17 16 16 16 16 16 15 15 15 15 15 14 14 14 14 14 14 13 13
24 24 25 24 24 24 24 24 24 25 24 24 24 23 23 22 21 20 20 19 19 18 18 18 18 17 17 17 17 17 16 16 16 16 15 15 15 15 15 15 14 14 14 14 14 14 13 13 13
25 24 24 23 22 22 23 24 23 23 23 24 23 23 22 22 21 20 20 19 19 18 18 17 17 17 17 17 16 16 16 16 16 15 15 15 15 15 15 14 14 14 14 14 14 13 13 13 13
24 24 24 23 23 22 22 23 25 24 23 23 23 23 22 21 20 20 19 19 19 18 18 17 17 17 17 17 16 16 16 16 15 15 15 15 15 14 14 14 14 14 14 14 13 13 13 13 13
24 24 23 22 22 23 22 22 25 24 24 23 23 22 21 20 20 19 19 19 18 18 17 17 17 17 16 16 16 16 16 15 15 15 15 15 14 14 14 14 14 14 13 13 13 13 13 13 13
Wind_Speed
10 11 8 3 2 1 4 6 8 7 7 8 8 9 12 12 8 7 3 4 6 8 10 11 11 11 10 9 9 10 10 10 10 10 10 10 10 11 11 10 9 9 9 8 8 8 8 8 8
10 7 4 3 2 2 5 6 9 9 7 5 7 10 12 11 10 8 4 4 6 9 11 11 11 10 10 10 10 10 10 10 10 10 10 10 11 11 11 11 10 10 10 10 10 8 8 8 8
11 7 4 2 1 4 6 7 8 8 6 6 8 11 9 7 9 6 5 5 8 10 12 12 11 10 10 10 10 10 10 10 10 10 11 11 11 11 11 11 11 11 10 11 11 10 9 9 9
6 4 3 0 4 8 8 7 7 7 6 7 8 9 10 10 7 8 7 7 9 10 12 11 11 10 9 10 10 10 10 10 10 10 11 11 11 11 11 11 11 11 11 10 11 10 9 9 9
4 3 1 2 5 7 7 7 6 6 6 9 11 11 10 10 11 10 8 8 8 10 11 11 11 10 10 10 10 10 10 10 11 11 11 11 11 11 11 11 11 11 11 10 10 10 9 9 9
3 2 1 3 6 7 7 6 6 7 7 9 10 11 8 9 8 8 8 6 8 9 10 11 10 10 11 10 11 11 11 11 10 10 11 11 11 11 11 10 11 11 10 10 10 9 8 8 8
3 2 1 4 6 6 6 5 6 7 6 7 8 9 8 9 7 8 7 6 7 8 8 10 10 10 11 11 11 10 10 10 9 9 9 9 10 11 11 10 10 10 9 9 8 8 8 7 7
3 2 2 3 5 4 4 5 6 6 6 6 5 6 7 9 8 8 6 6 6 6 7 8 10 10 10 9 10 9 8 8 7 7 7 7 8 10 10 10 9 9 8 8 7 7 7 6 6
4 1 2 2 3 4 5 4 5 5 6 7 8 11 11 11 9 7 6 5 6 6 5 7 7 8 8 9 9 8 7 6 6 5 5 5 6 7 8 9 9 8 7 7 6 5 5 5 4
1 1 2 1 3 4 4 4 4 4 6 8 10 12 11 10 8 7 7 6 6 6 5 6 6 6 6 6 7 6 5 5 5 4 4 4 5 7 8 9 7 6 5 4 3 3 3 2 2
1 2 2 2 4 3 3 4 3 4 4 7 9 10 9 8 7 6 7 7 6 6 5 5 6 6 5 3 4 3 3 3 2 2 4 5 6 6 6 6 5 4 3 2 2 2 2 3 4
2 2 2 2 2 1 2 2 3 4 5 7 9 9 8 7 6 7 7 8 7 7 5 4 5 6 5 4 3 2 2 1 1 3 5 4 2 2 3 3 4 3 2 2 2 1 3 4 5
2 2 2 2 2 1 2 2 3 4 6 7 10 9 7 6 5 5 7 8 8 7 6 5 5 5 5 3 1 3 2 2 3 3 4 5 2 2 3 2 3 3 3 3 3 3 4 5 5
2 2 3 3 3 3 3 3 4 5 6 7 9 8 7 6 6 5 5 6 8 8 7 5 5 5 5 4 3 3 2 2 3 2 4 5 4 3 3 3 3 3 3 4 3 4 5 4 4
4 3 4 5 5 4 2 2 4 7 7 7 8 9 8 6 6 5 6 6 6 7 7 5 5 5 4 4 3 3 2 3 2 2 4 5 5 5 4 4 3 2 4 5 4 5 4 3 4
6 5 4 5 5 5 4 3 5 8 7 7 7 8 8 7 6 6 6 5 6 7 8 7 4 5 5 4 3 2 3 3 3 4 5 5 6 7 5 3 2 4 4 3 3 3 3 3 3
6 6 6 6 6 5 5 3 5 7 7 6 6 7 8 7 6 6 6 6 6 6 7 8 6 5 5 4 4 3 3 3 4 5 5 6 6 7 5 3 2 4 3 3 3 3 3 3 3
5 5 5 5 7 6 5 4 6 6 6 6 6 5 6 7 6 6 6 6 6 6 6 8 6 5 5 3 3 3 3 3 3 4 4 5 5 6 4 2 4 4 3 3 3 3 3 2 1
7 6 5 2 4 4 5 5 7 7 5 4 5 6 5 6 7 7 7 6 6 5 6 7 7 5 5 3 2 2 2 2 2 2 4 3 4 5 4 3 4 3 3 3 3 3 2 1 1
8 7 6 2 3 3 4 5 6 8 7 6 5 5 5 6 8 7 8 7 5 4 4 6 6 6 6 3 2 2 3 2 2 2 2 3 4 4 3 3 3 3 3 3 3 3 2 1 1
8 7 6 5 4 5 4 4 6 7 7 6 5 5 6 6 8 9 8 7 6 4 3 4 6 6 6 5 2 3 3 2 2 1 1 2 3 3 3 3 2 2 2 2 2 3 3 1 2
7 4 6 7 7 5 7 3 4 8 7 7 6 5 6 6 6 8 7 8 7 5 3 3 4 5 5 5 4 3 3 2 2 2 1 1 2 2 2 2 2 1 2 2 2 3 2 2 1
6 5 7 8 8 8 7 5 3 6 7 7 7 6 5 5 6 7 7 6 6 5 4 3 4 4 4 4 4 3 2 2 2 2 2 2 1 1 2 1 1 1 1 2 2 3 1 1 0
6 8 9 8 7 8 9 6 2 5 6 6 7 7 6 6 5 7 7 7 6 5 5 4 4 4 4 3 4 4 3 2 2 2 1 1 2 2 2 1 1 1 1 2 2 2 1 1 0
8 6 4 5 6 6 6 4 3 4 4 5 5 6 7 6 6 6 7 7 7 7 5 4 4 4 3 2 2 3 3 2 2 2 1 1 1 1 2 2 1 1 1 1 2 2 2 2 1
8 9 5 4 4 4 5 3 4 7 5 5 5 5 7 7 6 6 7 6 7 7 5 4 5 3 3 2 2 3 3 2 2 2 1 1 1 1 1 1 1 1 1 1 1 1 2 2 1
8 8 8 8 9 6 3 5 6 7 7 5 5 5 5 7 7 6 6 6 7 8 6 5 5 4 3 2 1 1 2 2 1 1 2 1 0 0 0 0 1 1 1 1 1 1 2 1 2
8 8 6 5 4 5 4 5 6 8 7 6 6 6 5 5 6 6 5 5 5 7 6 5 4 3 3 2 1 1 0 1 1 1 2 1 0 0 1 1 1 1 2 2 2 2 2 1 1
8 9 7 6 5 4 3 0 3 8 7 5 5 6 5 4 5 4 4 4 5 6 6 4 4 3 2 2 1 1 1 1 1 1 1 1 0 0 1 1 1 1 1 1 2 2 1 2 2
7 8 8 6 6 6 5 0 6 6 6 5 5 5 5 5 4 4 4 4 4 4 4 4 3 3 2 2 2 1 1 1 1 1 1 0 0 1 1 1 1 1 1 1 2 3 3 3 3
Wind_Direction
257 244 240 242 261 222 64 65 65 54 56 47 47 56 64 53 49 84 99 64 76 90 93 78 66 64 61 59 62 66 65 64 63 64 64 66 65 62 60 63 63 63 60 60 65 74 81 80 82
270 265 262 234 247 86 77 72 70 64 63 63 64 64 70 65 72 93 92 73 81 84 82 78 73 68 66 63 66 69 68 66 65 65 65 67 68 65 63 63 63 66 65 64 64 70 76 76 74
261 262 258 248 32 71 85 79 81 74 64 66 73 63 57 67 75 91 105 97 86 83 84 84 77 72 71 69 70 72 71 69 68 69 68 69 71 73 69 68 67 69 69 67 64 66 68 70 67
261 251 245 333 71 71 84 95 96 85 67 69 76 76 68 62 83 104 111 97 92 92 91 92 89 84 79 75 75 76 74 73 72 71 69 70 73 74 74 71 70 71 72 71 69 67 63 66 66
238 247 208 93 81 81 81 84 84 81 70 71 80 88 84 80 94 105 102 97 97 101 102 99 97 94 88 83 81 81 79 77 76 75 74 74 75 77 77 73 72 74 76 76 76 73 65 63 64
266 250 153 99 86 85 78 69 76 78 79 85 95 100 99 106 104 106 103 100 101 103 106 105 102 99 95 90 89 87 85 83 82 80 79 78 78 79 79 76 73 75 76 75 76 77 73 68 64
288 304 62 99 95 80 76 63 65 72 68 70 91 100 110 111 111 113 110 102 99 105 113 121 115 105 99 97 98 96 94 94 93 91 89 88 87 87 84 80 75 74 76 77 77 78 79 78 75
285 309 47 83 100 86 78 77 70 77 72 68 79 102 118 123 122 117 119 114 108 106 110 118 127 124 120 111 109 109 109 111 111 109 111 108 101 99 96 90 84 81 80 81 84 87 91 91 88
278 321 51 64 102 106 97 91 89 90 92 85 80 94 116 128 133 134 132 120 113 114 116 115 120 124 124 124 123 135 136 138 144 149 156 146 133 121 107 99 100 95 91 89 93 100 107 105 104
229 68 102 69 96 111 115 109 115 118 108 100 99 105 119 133 143 143 136 127 125 124 119 119 117 118 114 110 132 150 147 156 168 163 147 135 103 97 104 113 115 115 113 111 117 126 121 123 121
122 113 94 64 79 104 118 116 104 105 107 113 121 127 135 146 150 139 133 131 124 112 103 118 123 116 106 104 117 116 115 131 145 119 112 107 107 120 126 138 143 150 150 128 116 159 149 101 84
122 120 124 109 91 124 126 123 112 106 110 121 127 130 138 150 143 140 132 124 122 119 116 107 110 115 115 115 117 119 112 108 87 77 89 93 92 99 106 117 125 123 91 76 75 54 74 83 88
143 149 134 142 177 173 155 148 120 119 119 133 134 136 146 147 135 129 129 130 129 126 123 109 106 105 110 107 117 107 91 68 84 66 84 93 88 106 114 101 98 88 73 66 52 46 48 47 54
165 167 170 183 183 195 187 159 156 143 145 148 143 149 159 147 138 132 126 124 129 131 126 122 119 115 121 121 108 100 111 102 82 58 79 89 85 94 95 88 80 83 72 71 77 66 59 46 53
204 205 194 194 198 193 192 193 184 154 163 164 161 155 155 150 147 145 130 128 130 130 125 119 121 117 108 98 90 97 80 78 79 62 63 83 82 76 80 74 76 82 72 63 65 68 65 64 60
215 212 222 206 195 175 193 217 181 156 173 173 171 158 157 156 159 148 135 134 132 130 127 123 114 106 98 95 91 76 72 60 60 59 41 54 73 77 76 70 67 82 79 78 72 69 68 65 64
234 227 218 201 185 185 197 191 163 170 179 180 178 163 159 157 161 150 144 137 129 126 130 129 121 114 104 99 98 70 73 62 59 59 48 37 45 73 76 64 64 72 69 63 59 60 63 69 68
247 239 231 202 183 193 206 200 178 180 188 184 172 168 161 161 157 143 141 131 123 124 127 126 121 120 110 96 96 84 66 53 58 60 59 42 46 65 75 79 71 65 63 59 61 62 53 58 67
277 279 270 227 176 190 223 219 188 175 186 192 181 175 170 159 144 131 130 130 131 133 140 134 135 130 113 98 100 102 95 74 65 61 66 51 60 67 70 67 66 61 70 70 75 78 60 43 64
267 266 264 246 203 206 223 226 191 175 183 185 185 173 171 155 144 138 139 129 123 125 136 140 132 121 114 110 112 119 110 96 86 59 71 54 61 62 77 84 76 76 75 69 70 76 51 7 40
252 258 275 274 247 232 237 239 211 171 176 179 185 176 169 163 154 152 142 135 137 132 130 118 124 124 128 127 102 91 86 90 79 72 60 49 72 70 60 76 87 105 105 104 101 96 84 41 347
262 268 269 269 265 245 216 234 208 172 176 180 183 179 169 162 153 144 142 144 143 138 136 123 115 121 124 128 119 121 128 133 148 145 148 109 86 88 78 78 75 86 96 109 117 98 91 92 8
269 278 269 264 265 269 241 230 223 166 177 184 179 175 162 154 151 142 139 135 133 129 122 112 103 103 109 121 134 140 138 155 152 145 144 137 132 121 106 110 125 108 119 129 107 103 100 96 100
274 267 254 251 254 250 240 223 210 177 185 173 166 164 157 152 144 133 127 128 133 133 124 115 110 99 100 118 146 148 149 155 150 151 157 163 167 173 160 150 166 180 148 141 140 145 150 176 179
245 257 248 224 222 234 211 209 177 130 139 142 152 156 152 149 145 140 140 144 144 141 139 137 122 115 115 140 159 150 150 159 161 151 167 218 175 175 180 187 208 207 182 163 156 162 191 209 187
243 244 251 264 253 239 201 191 130 122 120 129 134 144 155 149 146 145 144 144 144 142 146 149 139 139 141 172 173 159 151 148 141 151 151 162 151 212 172 202 199 196 189 177 157 187 221 201 177
253 247 259 275 282 277 226 167 137 141 140 136 131 131 133 139 140 138 138 146 151 154 159 158 150 155 156 163 142 148 141 147 149 169 142 127 189 279 23 249 212 185 176 198 165 206 235 215 188
257 276 271 257 274 263 237 211 177 163 152 146 141 129 124 129 136 139 140 146 151 151 155 157 158 160 155 149 159 123 142 154 168 162 116 151 203 1 307 294 282 219 199 195 175 202 240 214 213
228 245 252 264 263 271 263 195 98 142 139 142 139 128 123 120 129 134 133 134 133 137 145 150 156 151 140 142 142 154 170 165 152 142 131 183 156 271 267 274 286 284 244 209 167 183 215 227 235
247 250 252 253 263 269 272 166 92 113 128 128 124 117 112 105 107 119 120 120 116 122 137 145 147 147 147 142 134 163 137 152 145 124 127 105 201 274 289 288 290 283 218 193 186 211 210 216 229
Height
1487 1487 1488 1490 1491 1492 1493 1489 1485 1486 1487 1489 1489 1489 1493 1497 1501 1512 1511 1509 1508 1507 1505 1504 1503 1503 1503 1503 1503 1503 1503 1503 1504 1504 1504 1504 1504 1504 1505 1505 1505 1506 1506 1507 1507 1508 1508 1509 1509
1487 1489 1490 1490 1492 1499 1497 1488 1488 1488 1490 1490 1490 1492 1495 1500 1504 1508 1509 1509 1509 1508 1506 1505 1505 1504 1504 1504 1504 1504 1504 1504 1505 1505 1505 1505 1505 1505 1505 1506 1506 1507 1507 1508 1508 1508 1509 1509 1509
1487 1488 1489 1487 1490 1496 1495 1488 1488 1489 1490 1490 1492 1495 1499 1504 1506 1508 1510 1509 1509 1508 1507 1507 1506 1505 1505 1505 1505 1505 1506 1506 1506 1506 1506 1506 1506 1506 1507 1507 1508 1508 1508 1509 1509 1510 1510 1509 1510
1488 1489 1488 1489 1493 1487 1487 1487 1487 1489 1491 1491 1493 1498 1504 1507 1508 1510 1510 1510 1510 1509 1508 1508 1507 1507 1507 1507 1507 1507 1507 1507 1507 1507 1507 1507 1507 1507 1508 1508 1509 1509 1509 1510 1510 1510 1511 1511 1511
1487 1487 1489 1493 1490 1486 1485 1487 1488 1490 1491 1493 1496 1502 1507 1509 1510 1510 1511 1511 1511 1510 1510 1509 1509 1508 1508 1508 1508 1508 1508 1508 1508 1508 1508 1509 1509 1509 1509 1510 1510 1510 1510 1511 1511 1511 1511 1512 1512
1487 1484 1493 1498 1493 1487 1487 1489 1489 1491 1493 1495 1498 1502 1508 1511 1511 1512 1512 1512 1512 1512 1511 1511 1510 1510 1509 1509 1509 1510 1510 1510 1510 1510 1510 1510 1510 1510 1511 1511 1511 1512 1512 1512 1512 1512 1513 1513 1514
1488 1486 1492 1493 1494 1492 1490 1490 1491 1493 1495 1496 1499 1503 1508 1511 1512 1513 1513 1514 1514 1513 1513 1512 1512 1511 1511 1511 1511 1511 1511 1511 1512 1512 1512 1512 1512 1512 1512 1513 1513 1513 1513 1513 1514 1514 1514 1515 1515
1487 1487 1491 1492 1495 1496 1492 1492 1494 1495 1497 1499 1500 1503 1508 1511 1513 1513 1514 1515 1515 1515 1515 1514 1513 1513 1513 1513 1513 1513 1513 1513 1514 1514 1514 1514 1514 1514 1514 1514 1515 1515 1515 1515 1515 1516 1516 1516 1517
1488 1492 1497 1494 1494 1494 1492 1494 1495 1497 1498 1500 1502 1504 1508 1511 1512 1513 1514 1515 1516 1516 1516 1516 1516 1515 1515 1515 1515 1515 1515 1515 1515 1515 1516 1516 1516 1516 1516 1516 1516 1516 1517 1517 1517 1517 1518 1518 1519
1488 1494 1494 1490 1489 1492 1493 1494 1495 1497 1499 1501 1504 1507 1509 1511 1512 1513 1514 1516 1516 1517 1517 1517 1518 1517 1517 1517 1517 1517 1517 1517 1517 1517 1517 1518 1518 1518 1518 1518 1518 1518 1519 1519 1519 1519 1519 1520 1520
1487 1490 1489 1489 1490 1492 1493 1494 1496 1497 1500 1502 1505 1507 1509 1511 1512 1513 1514 1516 1517 1517 1518 1518 1518 1519 1519 1519 1519 1519 1519 1519 1519 1519 1519 1519 1519 1519 1519 1519 1519 1520 1520 1520 1521 1521 1521 1521 1522
1488 1488 1489 1491 1492 1493 1493 1494 1496 1497 1500 1502 1504 1507 1509 1511 1512 1513 1515 1516 1517 1518 1519 1519 1519 1520 1520 1520 1520 1520 1520 1520 1520 1520 1520 1520 1519 1520 1520 1520 1521 1521 1521 1522 1522 1522 1522 1523 1523
1488 1489 1490 1492 1493 1493 1494 1495 1496 1498 1500 1502 1504 1507 1509 1510 1512 1513 1514 1516 1517 1518 1519 1519 1520 1520 1520 1521 1521 1521 1521 1521 1521 1521 1521 1520 1520 1520 1520 1521 1522 1522 1523 1523 1523 1523 1523 1524 1524
1488 1489 1490 1491 1492 1493 1493 1494 1496 1498 1500 1502 1504 1506 1509 1510 1512 1513 1514 1516 1517 1518 1519 1520 1520 1521 1521 1522 1522 1522 1522 1522 1522 1522 1522 1521 1521 1521 1521 1522 1522 1523 1523 1524 1524 1524 1524 1524 1525
1488 1489 1489 1489 1490 1491 1493 1496 1495 1497 1499 1501 1503 1505 1508 1510 1511 1513 1514 1515 1516 1517 1519 1520 1521 1521 1522 1522 1522 1523 1523 1523 1523 1523 1523 1522 1522 1522 1522 1522 1523 1524 1524 1524 1525 1525 1525 1525 1526
1486 1490 1495 1488 1487 1489 1496 1502 1494 1496 1498 1500 1502 1504 1506 1509 1510 1512 1514 1515 1516 1517 1518 1519 1521 1522 1522 1523 1523 1523 1524 1523 1523 1523 1523 1523 1523 1522 1523 1523 1524 1524 1525 1525 1525 1525 1526 1526 1526
1488 1493 1494 1488 1485 1487 1492 1497 1493 1494 1496 1498 1500 1502 1504 1507 1509 1511 1513 1514 1516 1517 1518 1519 1520 1521 1522 1523 1523 1523 1524 1524 1524 1524 1524 1524 1524 1524 1524 1524 1524 1524 1525 1525 1526 1526 1526 1526 1526
1492 1490 1488 1487 1484 1485 1489 1492 1491 1492 1494 1496 1498 1500 1502 1505 1508 1510 1512 1513 1515 1517 1518 1519 1520 1521 1522 1523 1523 1524 1524 1524 1524 1524 1524 1524 1524 1524 1524 1525 1525 1525 1525 1525 1525 1526 1526 1526 1527
1483 1486 1487 1483 1479 1484 1488 1489 1488 1490 1492 1494 1496 1498 1500 1503 1506 1508 1510 1512 1514 1516 1517 1518 1519 1521 1521 1522 1523 1523 1524 1524 1524 1524 1524 1524 1524 1524 1524 1524 1525 1525 1525 1525 1526 1525 1526 1527 1527
1482 1486 1486 1482 1479 1482 1486 1486 1484 1486 1489 1492 1494 1496 1499 1501 1504 1506 1509 1511 1513 1515 1517 1518 1519 1520 1521 1522 1522 1523 1523 1523 1524 1524 1524 1524 1524 1524 1524 1524 1524 1525 1525 1525 1525 1525 1526 1526 1527
1482 1485 1486 1485 1480 1480 1486 1490 1485 1484 1486 1490 1492 1494 1496 1499 1502 1504 1507 1509 1512 1514 1515 1517 1518 1519 1520 1521 1522 1522 1522 1523 1523 1524 1524 1524 1524 1524 1524 1525 1525 1524 1525 1525 1525 1525 1525 1526 1526
1485 1479 1481 1483 1487 1490 1487 1502 1487 1483 1485 1487 1490 1492 1494 1497 1500 1502 1505 1508 1510 1513 1514 1516 1517 1518 1519 1520 1521 1521 1522 1522 1523 1523 1524 1524 1524 1524 1524 1524 1524 1524 1524 1524 1525 1525 1525 1525 1525
1480 1478 1479 1481 1486 1489 1484 1494 1490 1481 1486 1486 1487 1490 1492 1495 1498 1501 1503 1506 1509 1511 1513 1515 1516 1517 1518 1519 1519 1520 1521 1522 1522 1523 1523 1523 1523 1523 1523 1523 1523 1523 1523 1524 1524 1524 1524 1525 1525
1477 1478 1479 1480 1486 1498 1485 1490 1494 1482 1482 1482 1484 1488 1491 1494 1497 1500 1502 1505 1507 1509 1511 1513 1515 1516 1517 1518 1518 1519 1520 1521 1521 1522 1522 1522 1522 1522 1522 1522 1522 1522 1523 1523 1523 1523 1523 1524 1524
1478 1487 1497 1500 1501 1495 1475 1483 1487 1476 1476 1479 1483 1486 1489 1492 1495 1498 1501 1503 1505 1507 1510 1512 1513 1514 1515 1517 1518 1518 1519 1519 1520 1520 1521 1521 1521 1521 1521 1521 1521 1521 1521 1521 1522 1522 1522 1522 1522
1478 1483 1499 1505 1500 1487 1476 1484 1480 1474 1476 1479 1482 1485 1488 1491 1494 1497 1499 1501 1504 1506 1508 1510 1511 1513 1514 1515 1516 1517 1518 1518 1519 1519 1519 1520 1520 1520 1520 1519 1519 1519 1519 1519 1520 1520 1520 1521 1521
1479 1479 1476 1486 1486 1489 1482 1478 1477 1473 1476 1479 1482 1484 1487 1490 1493 1495 1498 1500 1502 1504 1506 1508 1509 1511 1513 1514 1515 1516 1516 1517 1517 1518 1518 1518 1518 1518 1518 1517 1517 1517 1517 1517 1517 1518 1518 1518 1518
1475 1476 1480 1487 1496 1499 1487 1481 1482 1477 1477 1478 1481 1484 1487 1489 1492 1494 1496 1498 1500 1502 1504 1506 1508 1510 1511 1512 1513 1514 1514 1515 1515 1516 1516 1516 1516 1516 1515 1515 1515 1515 1514 1514 1515 1515 1516 1516 1516
1477 1479 1478 1481 1483 1495 1497 1488 1467 1472 1474 1477 1480 1483 1486 1489 1491 1493 1495 1497 1498 1500 1502 1504 1506 1508 1509 1510 1511 1511 1512 1513 1513 1514 1514 1514 1514 1514 1513 1513 1512 1512 1511 1511 1512 1512 1513 1514 1514
1471 1474 1478 1489 1488 1483 1490 1489 1467 1470 1473 1476 1480 1483 1486 1488 1490 1492 1494 1496 1497 1499 1501 1503 1504 1505 1506 1507 1508 1509 1510 1511 1511 1511 1512 1512 1511 1511 1510 1510 1510 1509 1509 1509 1509 1510 1511 1511 1512